RADUGA 12 [-]

Last updated on Sept. 30, 2020, 5:50 a.m. UTC

1 13974U 83028A   20273.72572670 -.00000062  00000-0  00000-0 0  9994
2 13974  12.3600 324.6252 0002586  51.1453 323.5599  1.00291055148464
UTC
Height (km)
Latitude
Longitude
Inclination
Orbital Period
UTC large
Height (km)
Speed (km/s)
/
Latitude / Longitude
Inclination (degrees)
Orbital Period (minutes)
Azimuth
Elevation
Range (km)
Doppler Factor
iOS Compass Heading
iOS Angle

Next 30 passes for location: Hong Kong

Rise time Rise Azimuth (degrees) Set time Set Azimuth (degrees) Duration Max altitude (degrees)

No matching passes for this satellites